Le nostre stazioni meteo in Italia

Pubblicità
Il mio iltempo24.it
Sciacca, Italia (16436): Temperatura & dewpoint: 16.06.2017 22:00:00 - 22.06.2017 22:00:00 (CEST)Sciacca, Italia (16436): velocità del vento: 16.06.2017 22:00:00 - 22.06.2017 22:00:00 (CEST)Sciacca, Italia (16436): direzione del vento: 16.06.2017 22:00:00 - 22.06.2017 22:00:00 (CEST)Sciacca, Italia (16436): reduced air pressure: 16.06.2017 22:00:00 - 22.06.2017 22:00:00 (CEST)
Data & Tempo tt [°C] td [°C] ff [km/h] ff [kn] dd ppp [hPa]
22.06.2017 22:00:00 - - - - - -
22.06.2017 21:00:00 27,0 15,3 9 5 NNO 1017,5
22.06.2017 20:00:00 27,7 13,2 13 7 O 1017,1
22.06.2017 19:00:00 - - - - - -
22.06.2017 18:00:00 27,4 15,0 15 8 O 1017,0
22.06.2017 17:00:00 26,2 19,8 13 7 OSO 1017,6
22.06.2017 16:00:00 26,1 22,1 18 10 OSO 1017,9
22.06.2017 15:00:00 26,8 19,6 18 10 OSO 1018,1
22.06.2017 14:00:00 25,9 20,8 18 10 SO 1018,4
22.06.2017 13:00:00 26,1 18,7 16 9 SO 1018,5
22.06.2017 12:00:00 26,0 14,4 15 8 SO 1018,5
22.06.2017 11:00:00 24,7 18,1 15 8 SO 1018,5
22.06.2017 10:00:00 23,7 20,8 9 5 SO 1018,2
22.06.2017 09:00:00 21,8 20,2 9 5 SO 1018,2
22.06.2017 08:00:00 - - - - - -
22.06.2017 07:00:00 - - - - - -
22.06.2017 06:00:00 - - - - - -
22.06.2017 05:00:00 - - - - - -
22.06.2017 04:00:00 - - - - - -
22.06.2017 03:00:00 - - - - - -
22.06.2017 02:00:00 - - - - - -
22.06.2017 01:00:00 - - - - - -
22.06.2017 00:00:00 - - - - - -
21.06.2017 23:00:00 - - - - - -
21.06.2017 22:00:00 22,4 16,8 5 3 ONO 1017,7
21.06.2017 21:00:00 23,0 13,9 8 4 O 1017,3
21.06.2017 20:00:00 24,6 14,0 11 6 O 1016,7
21.06.2017 19:00:00 25,3 14,4 15 8 O 1016,6
21.06.2017 18:00:00 25,5 14,2 18 10 O 1016,7
21.06.2017 17:00:00 25,4 15,6 18 10 OSO 1017,0
21.06.2017 16:00:00 25,6 19,4 15 8 OSO 1017,1
21.06.2017 15:00:00 25,4 18,3 18 10 OSO 1017,3
21.06.2017 14:00:00 25,8 14,2 18 10 OSO 1017,8
21.06.2017 13:00:00 25,7 17,5 15 8 OSO 1018,1
21.06.2017 12:00:00 24,4 17,6 13 7 SO 1018,5
21.06.2017 11:00:00 24,0 21,3 8 4 SSO 1018,3
21.06.2017 10:00:00 22,9 21,1 5 3 SO 1018,5
21.06.2017 09:00:00 21,6 20,0 5 3 SSO 1018,9
21.06.2017 08:00:00 - - - - - -
21.06.2017 07:00:00 - - - - - -
21.06.2017 06:00:00 - - - - - -
21.06.2017 05:00:00 - - - - - -
21.06.2017 04:00:00 - - - - - -
21.06.2017 03:00:00 - - - - - -
21.06.2017 02:00:00 - - - - - -
21.06.2017 01:00:00 21,9 17,0 2 1 OSO 1019,8
21.06.2017 00:00:00 21,9 17,0 2 1 OSO 1019,8
20.06.2017 23:00:00 21,9 17,0 2 1 OSO 1019,8
20.06.2017 22:00:00 21,9 17,0 2 1 OSO 1019,8
20.06.2017 21:00:00 22,5 18,2 9 5 O 1019,4
20.06.2017 20:00:00 23,9 14,5 13 7 O 1019,2
20.06.2017 19:00:00 24,8 15,1 11 6 OSO 1019,1
20.06.2017 18:00:00 24,9 15,2 15 8 OSO 1019,2
20.06.2017 17:00:00 25,1 14,8 16 9 OSO 1019,7
20.06.2017 16:00:00 24,8 17,7 11 6 OSO 1020,1
20.06.2017 15:00:00 25,3 15,5 9 5 SO 1020,5
20.06.2017 14:00:00 25,2 19,3 9 5 SO 1020,9
20.06.2017 13:00:00 24,8 21,5 9 5 S 1021,4
20.06.2017 12:00:00 24,7 15,0 9 5 NE 1021,6
20.06.2017 11:00:00 24,1 18,4 8 4 SO 1021,5
20.06.2017 10:00:00 23,3 17,4 5 3 SO 1021,4
20.06.2017 09:00:00 22,6 16,3 4 2 SSO 1021,2
20.06.2017 08:00:00 - - - - - -
20.06.2017 07:00:00 - - - - - -
20.06.2017 06:00:00 - - - - - -
20.06.2017 05:00:00 - - - - - -
20.06.2017 04:00:00 - - - - - -
20.06.2017 03:00:00 - - - - - -
20.06.2017 02:00:00 - - - - - -
20.06.2017 01:00:00 - - - - - -
20.06.2017 00:00:00 - - - - - -
19.06.2017 23:00:00 - - - - - -
19.06.2017 22:00:00 21,5 19,5 2 1 NE 1019,1
19.06.2017 21:00:00 22,8 19,3 2 1 NE 1018,1
19.06.2017 20:00:00 25,0 19,3 4 2 NE 1017,6
19.06.2017 19:00:00 26,0 18,3 4 2 SE 1016,9
19.06.2017 18:00:00 25,3 18,9 8 4 S 1016,9
19.06.2017 17:00:00 24,8 17,2 15 8 OSO 1017,3
19.06.2017 16:00:00 25,4 17,5 18 10 OSO 1017,5
19.06.2017 15:00:00 25,4 13,2 15 8 SO 1017,8
19.06.2017 14:00:00 24,7 13,5 15 8 OSO 1017,8
19.06.2017 13:00:00 25,2 14,0 11 6 SO 1018,2
19.06.2017 12:00:00 24,4 15,0 11 6 OSO 1018,5
19.06.2017 11:00:00 24,1 18,0 8 4 SSO 1018,6
19.06.2017 10:00:00 23,2 17,6 5 3 SSE 1018,5
19.06.2017 09:00:00 21,5 19,0 4 2 E 1018,7
19.06.2017 08:00:00 - - - - - -
19.06.2017 07:00:00 - - - - - -
19.06.2017 06:00:00 - - - - - -
19.06.2017 05:00:00 - - - - - -
19.06.2017 04:00:00 - - - - - -
19.06.2017 03:00:00 21,0 18,3 13 7 O 1017,3
19.06.2017 02:00:00 21,0 18,3 13 7 O 1017,3
19.06.2017 01:00:00 21,0 18,3 13 7 O 1017,3
19.06.2017 00:00:00 21,0 18,3 13 7 O 1017,3
18.06.2017 23:00:00 21,0 18,3 13 7 O 1017,3
18.06.2017 22:00:00 21,4 19,5 2 1 E 1017,1
18.06.2017 21:00:00 21,6 19,3 9 5 NO 1016,4
18.06.2017 20:00:00 22,1 20,5 13 7 ONO 1015,9
18.06.2017 19:00:00 22,5 21,3 4 2 NNE 1015,5
18.06.2017 18:00:00 22,8 21,2 2 1 O 1015,4
18.06.2017 17:00:00 24,2 21,3 5 3 SO 1015,0
18.06.2017 16:00:00 24,7 21,6 8 4 SO 1014,8
18.06.2017 15:00:00 24,4 21,1 8 4 SO 1014,7
18.06.2017 14:00:00 24,6 20,7 8 4 S 1014,6
18.06.2017 13:00:00 25,1 19,6 5 3 S 1014,4
18.06.2017 12:00:00 25,9 18,3 11 6 S 1013,9
18.06.2017 11:00:00 25,9 18,5 8 4 S 1013,5
18.06.2017 10:00:00 26,3 16,2 5 3 SSE 1013,1
18.06.2017 09:00:00 25,0 18,1 - - - 1012,6
18.06.2017 08:00:00 - - - - - -
18.06.2017 07:00:00 - - - - - -
18.06.2017 06:00:00 - - - - - -
18.06.2017 05:00:00 - - - - - -
18.06.2017 04:00:00 - - - - - -
18.06.2017 03:00:00 - - - - - -
18.06.2017 02:00:00 - - - - - -
18.06.2017 01:00:00 - - - - - -
18.06.2017 00:00:00 - - - - - -
17.06.2017 23:00:00 24,1 20,4 4 2 ENE 1011,0
17.06.2017 22:00:00 26,1 18,7 2 1 SSO 1010,7
17.06.2017 21:00:00 27,2 16,7 16 9 NO 1010,1
17.06.2017 20:00:00 27,7 22,4 18 10 O 1009,8
17.06.2017 19:00:00 27,7 23,5 22 12 ONO 1009,8
17.06.2017 18:00:00 27,6 23,8 26 14 ONO 1010,1
17.06.2017 17:00:00 28,0 23,8 24 13 ONO 1010,9
17.06.2017 16:00:00 27,4 23,8 34 18 O 1011,0
17.06.2017 15:00:00 28,7 23,6 28 15 O 1011,4
17.06.2017 14:00:00 28,3 23,6 24 13 O 1011,9
17.06.2017 13:00:00 28,9 22,8 18 10 O 1012,4
17.06.2017 12:00:00 27,9 22,3 18 10 O 1012,9
17.06.2017 11:00:00 26,0 21,4 13 7 O 1013,0
17.06.2017 10:00:00 24,0 22,7 5 3 OSO 1013,3
17.06.2017 09:00:00 24,3 19,1 2 1 E 1014,5
17.06.2017 08:00:00 - - - - - -
17.06.2017 07:00:00 - - - - - -
17.06.2017 06:00:00 - - - - - -
17.06.2017 05:00:00 - - - - - -
17.06.2017 04:00:00 - - - - - -
17.06.2017 03:00:00 - - - - - -
17.06.2017 02:00:00 - - - - - -
17.06.2017 01:00:00 - - - - - -
17.06.2017 00:00:00 - - - - - -
16.06.2017 23:00:00 - - - - - -
16.06.2017 22:00:00 24,3 19,1 2 1 E 1014,5

tt = Temperatura
td = dewpoint
ff = velocità del vento
dd = direzione del vento
ppp = reduced air pressure

Stazioni seguenti

WeatherPro
AMSI
MeteoEarth